Showing default

OPS 4988 (GREB 6), 1271

Orbit data source: Space-Track

OPS 4988 (GREB 6), 1271 is an American payload satellite in LEO that was launched on Tue, 09 Mar 1965 UTC via a THOR SLV-2 AGENA D launch vehicle from the Air Force Western Test Range (AFWTR). Payload-class satellites include a variety of spacecraft equipped with specific instruments for various scientific and technological missions. These include communications satellites like Starlink; space stations such as the ISS; scientific satellites like the Hubble; Earth observation satellites from companies like Planet Labs, Umbra, and HawkEye 360; GPS; miniature CubeSats for education and research; and military/defense satellites.

Loading next visibility...
Identifier
1271, 1965-016A
Orbit
LEO
Country
Flag of USUS
Related business
Manufacturer
NRL
Mission
Spacecraft
Bus & Motor
NRL 24", Unknown motor
Mass
48 kg wet, 48 kg dry
Launch date (UTC)
1965-03-09 (61 years ago)
Launch vehicle
THOR SLV-2 AGENA D
Launch site
Air Force Western Test Range (AFWTR)
Object type
Payload
Rocket body
Debris
Shape & HBR
Unknown
Radar Cross Section
Medium (>0.1 m² and <1 m²)

Expand to show TLE details & history
Last TLE update: 21 hours ago

TLE from 21 hours ago
0 OPS 4988 (GREB 6)
1 01271U 65016A   25293.79592898  .00000127  00000-0  12956-3 0  9993
2 01271  70.0790 308.4716 0019825  16.4293 156.0953 13.96602902 85386
Epoch: 2025-10-20T19:06Z
TLE epoch observation values (Epoch: 2025-10-20T19:06:08.263Z)
Latitude
6.87713°
Longitude
169.952°
Altitude
920.48 km
Speed
7.386 km/s
True Right ascension
08h 23m 55s
True Declination
6° 50' 14"
Sunlit
Object was in daylight at epoch
Visualization orbit readout
Latitude
Unknown
Longitude
Unknown
Altitude
Unknown
Speed
Unknown
Apparent Right ascension
Unknown
Apparent Declination
Unknown
Sunlit
N/A
Visualization observer readout
Local Sidereal Time
11:02:24
Azimuth
Unknown
Elevation
Unknown
Doppler factor
Unknown
Orbital elements
Apogee altitude
918.053 km
Perigee altitude
889.181 km
Semi-major axis
7,281.754 km
Eccentricity
0.00198
Inclination
70.079°
RAAN
308.4716°
Arg. of periapsis
16.4293°
True anomaly
156.18715°
Mean anomaly
156.0953°
Eccentric anomaly
156.14124°
Mean motion
3.49292 °/min
Orbital period
103.07 mins
BSTAR
0.00012956
Loading maneuver chart data...
Computing Atmospheric mass density...
Loading historical data...
Loading historical data...
Loading historical data...
Loading historical data...
Loading historical data...
Loading historical data...
Loading historical data...

Documentation

Showing up to 5 results
|